Voltar ao catálogo

COSMOS 249 DEB

AtivoLEO
NORAD 3609·DEBRIS·🇷🇺 Russia

Lançado Oct 20, 1968 de Baikonur Cosmodrome

Loading…

Próximas Passagens (próximas 24 horas)

TLE

AtualizadoSource: Space-Track

Época: Sep 14, 2026, 11:19 UTC

1 03609U 68091AB  26257.47174452  .00000639  00000-0  14289-3 0  9993
2 03609  62.2714 263.0000 0725746 156.2823 207.3516 13.66575739717091

Acompanhe COSMOS 249 DEB em tempo real com AllMySat

Download on the App Store